Wind_Speed
8 8 7 6 6 5 5 5 6 6 6 6 6 7 7 7 7 8 9 10 10 11 11 12 12 13 13 13 13 13 13 13 14 13 13 14 15 17 18 18 17 16 16 16 15 14 14 14 13 13 12 11 10 9 8 8 8 8 7 2 6 13 20 23 23 22 19 15 16 14 14 12 8 10 8 7 7 6 9 7 5 6 6 6 7 10 11 11
9 8 7 7 6 6 6 6 6 6 6 6 7 7 7 7 8 8 9 10 11 12 13 13 13 14 14 15 15 15 15 15 16 15 14 15 16 17 18 18 18 17 16 16 16 16 15 15 14 14 13 13 11 10 8 8 8 9 7 5 6 10 18 21 19 20 20 17 18 15 13 12 9 10 9 7 7 6 9 9 6 6 6 6 6 8 9 10
9 9 8 7 7 6 6 6 6 6 6 6 7 7 7 7 8 8 9 10 11 12 14 15 15 15 16 16 17 17 17 17 18 17 16 16 17 18 18 19 19 18 17 17 16 16 16 16 15 14 14 12 11 10 9 9 9 8 8 6 6 8 13 18 17 17 17 14 15 16 17 14 9 9 9 8 9 8 9 9 8 8 8 7 6 7 8 8
11 10 9 8 8 7 7 6 6 6 6 7 7 7 7 8 8 8 9 10 11 12 14 15 16 17 18 18 19 19 19 19 20 19 18 18 19 19 19 19 20 20 19 17 17 17 16 16 16 15 14 12 10 11 11 10 8 8 7 6 6 8 11 17 19 18 18 16 13 15 17 15 10 8 9 9 10 9 7 7 7 9 10 9 8 7 7 7
12 12 11 10 9 9 8 7 7 7 7 7 8 8 8 8 8 8 9 9 10 12 13 15 16 18 19 20 20 20 21 22 22 21 20 20 20 20 20 20 20 21 20 19 18 18 17 17 17 16 15 13 12 13 12 9 8 8 7 6 7 8 11 16 20 19 21 20 15 14 15 14 9 7 9 10 11 11 9 7 6 8 10 10 9 8 7 6
14 13 13 12 11 11 10 9 9 9 9 9 9 9 9 9 10 10 10 10 11 11 13 14 16 18 20 21 22 22 23 24 23 22 22 22 22 22 22 22 21 22 22 20 19 19 18 18 18 17 16 15 13 14 11 7 8 8 7 7 7 10 13 17 20 19 21 21 19 18 18 12 8 8 9 9 11 12 11 9 7 6 8 9 9 8 7 6
15 15 14 14 13 13 12 11 11 10 10 10 11 11 11 11 11 12 12 12 12 13 13 14 15 18 20 22 24 25 25 24 23 24 25 25 24 24 24 23 23 23 23 22 20 20 19 19 19 18 17 16 14 13 11 8 8 7 6 8 8 10 14 18 21 19 20 21 22 22 20 13 9 10 9 9 10 11 11 10 7 7 8 8 8 8 7 6
15 15 15 15 15 15 14 13 13 12 12 12 12 12 13 13 14 14 15 15 15 15 15 15 16 17 19 22 24 26 26 26 26 26 28 28 27 26 26 26 25 24 24 23 21 20 19 20 20 19 18 16 14 13 12 10 9 7 6 8 8 9 15 19 22 20 19 22 23 22 19 13 11 11 9 10 10 10 12 11 8 8 8 7 7 7 7 6
16 16 16 16 16 16 15 15 14 14 13 13 14 14 15 15 16 17 17 18 18 18 17 17 17 17 18 21 23 25 27 28 28 28 30 30 29 29 28 27 27 25 24 24 22 20 20 21 21 20 18 17 16 15 13 11 9 8 8 8 10 7 15 20 23 22 21 23 22 19 18 14 12 12 9 10 10 9 11 11 10 9 9 8 7 6 5 5
16 16 16 16 17 17 16 16 15 15 15 15 15 15 16 17 17 18 19 19 20 20 20 19 19 18 18 20 22 23 25 27 28 30 32 32 31 31 30 29 29 27 26 25 23 22 22 22 22 20 17 18 17 15 14 11 11 10 10 11 12 8 13 20 23 23 22 23 21 19 19 16 15 12 11 12 9 9 11 11 11 11 10 10 9 7 6 5
17 17 17 17 17 17 17 16 16 16 16 16 16 16 17 18 19 19 20 20 20 21 21 20 20 19 19 19 21 21 22 24 26 30 34 34 34 33 32 31 30 29 28 26 25 24 24 23 23 21 19 19 18 16 14 12 11 10 10 12 11 7 10 19 22 23 22 22 21 21 19 17 15 11 13 14 9 9 12 11 12 11 10 11 11 9 7 6
17 17 17 17 17 17 17 16 16 16 17 17 17 17 18 19 20 20 21 21 21 21 21 21 20 19 19 20 21 20 19 21 23 28 35 37 36 35 34 33 32 31 30 28 27 26 25 24 23 22 21 20 18 15 14 11 10 9 9 10 8 5 7 18 22 24 23 21 22 22 19 19 16 10 12 13 9 9 11 12 13 11 10 11 11 9 8 8
17 17 18 18 18 18 17 17 17 17 17 17 18 18 19 20 20 21 22 22 22 22 21 21 20 19 19 20 21 21 19 18 18 23 33 38 38 37 36 34 32 32 32 30 29 27 25 24 23 23 22 20 18 16 14 10 8 8 6 5 5 5 5 17 22 24 24 20 22 23 20 20 15 11 13 12 9 10 10 13 14 11 11 11 11 10 9 8
18 18 18 18 18 18 17 17 17 17 17 18 19 19 20 21 21 22 22 22 22 22 21 20 20 19 19 20 22 21 19 17 16 18 28 37 38 37 36 35 33 32 33 33 31 29 27 25 23 24 23 20 19 18 16 11 8 8 6 5 5 4 2 17 23 25 25 22 23 23 19 17 13 13 18 15 9 10 11 13 14 12 12 11 11 11 9 8
18 18 18 18 18 17 17 17 17 17 18 18 19 20 21 21 22 22 22 23 22 21 21 21 20 19 19 20 21 21 20 19 17 17 23 32 36 37 36 35 34 32 33 34 33 31 28 25 23 23 22 21 20 19 17 13 9 8 7 7 6 1 0 13 23 26 26 25 24 23 19 17 15 15 20 17 10 11 12 14 15 13 12 12 11 10 9 9
19 18 18 18 18 17 17 17 18 18 18 19 20 21 22 22 22 23 23 23 22 22 21 21 20 19 19 20 21 21 21 20 19 18 20 27 32 35 35 35 34 33 33 34 34 33 29 26 23 21 21 20 21 20 18 15 11 8 6 5 5 5 1 3 18 26 25 25 24 21 20 18 16 16 19 18 13 12 13 15 15 13 13 12 10 10 10 9
19 19 19 18 18 18 18 18 18 19 19 20 21 21 22 23 23 23 23 23 22 21 20 20 20 20 20 20 21 21 21 21 20 19 19 23 27 31 33 34 34 33 32 33 35 34 31 27 23 21 23 23 22 22 18 15 12 8 6 5 4 7 5 5 8 24 26 25 25 22 21 20 19 19 18 18 15 13 13 15 16 14 14 13 11 10 9 9
19 19 19 18 18 18 18 19 19 20 20 21 21 22 23 23 23 23 23 22 21 20 20 19 19 19 18 18 19 20 20 20 19 18 19 21 24 28 31 32 33 33 32 32 34 35 33 30 26 24 27 26 23 22 20 17 12 9 7 6 5 7 8 4 2 19 28 27 26 23 20 20 20 21 19 17 16 15 15 16 16 15 14 13 12 10 9 9
19 19 19 18 18 18 19 19 20 20 20 21 22 22 23 23 23 22 22 21 20 19 19 18 17 17 16 15 17 18 18 18 17 17 18 19 20 24 28 30 31 32 32 31 32 34 35 33 29 26 25 25 22 21 22 19 14 11 7 6 6 7 9 3 4 13 28 27 26 23 20 20 20 21 20 18 18 17 16 17 17 16 15 14 12 10 9 9
19 19 19 18 18 19 19 20 20 20 21 21 22 22 22 22 22 21 20 20 19 18 17 17 16 16 16 16 16 17 18 18 18 17 17 18 18 20 26 29 30 30 30 31 31 33 35 35 31 26 23 22 22 22 23 20 15 12 8 5 6 6 8 6 2 7 20 24 25 25 23 22 22 22 21 20 21 18 17 18 17 17 16 15 13 11 10 10
19 19 19 18 19 19 20 20 21 21 21 21 22 22 22 21 21 20 20 19 18 17 17 16 15 16 16 16 17 17 18 18 18 17 16 17 16 18 24 28 28 28 29 31 32 32 35 36 32 27 24 22 22 22 21 20 16 12 10 7 8 7 7 8 4 5 11 17 21 24 24 22 23 22 21 21 21 18 18 18 18 18 17 16 14 13 11 10
19 19 19 19 19 20 20 21 21 21 22 22 22 22 22 21 20 19 19 18 17 18 18 16 15 16 16 15 16 17 19 18 17 16 16 16 15 16 21 24 25 26 29 32 32 30 32 34 33 28 25 24 23 21 21 20 17 14 11 9 9 9 8 8 8 5 5 7 12 20 24 24 25 24 22 22 21 18 18 18 18 18 17 16 15 14 13 11
19 19 19 19 20 20 21 21 22 22 22 22 22 21 21 20 19 18 17 17 17 17 17 15 14 14 14 14 15 16 17 17 17 16 15 15 15 15 19 22 24 26 28 30 30 28 28 31 33 30 27 26 23 19 20 20 17 15 13 11 10 10 9 8 9 8 3 2 6 13 21 25 27 25 24 24 23 21 19 19 19 18 18 18 17 16 14 13
19 19 20 20 21 21 21 21 22 22 22 22 21 21 20 19 19 17 15 15 15 14 13 11 11 12 11 12 13 15 16 16 16 15 14 13 13 14 17 20 23 24 25 27 28 26 27 30 33 33 29 28 26 21 19 20 18 15 13 12 10 9 8 8 9 10 5 1 3 7 12 20 26 27 26 26 26 24 22 20 20 20 20 19 18 18 16 15
20 20 20 21 21 21 21 21 22 22 22 21 20 20 18 17 17 15 12 11 8 8 8 7 9 10 10 9 11 13 14 13 13 13 13 12 12 14 17 19 20 23 24 25 26 27 27 29 32 34 30 28 28 23 19 20 20 17 13 12 11 9 8 7 8 10 8 4 2 4 7 12 21 28 29 28 28 26 24 23 22 22 21 19 18 18 17 15
20 20 21 21 21 22 22 22 22 21 21 20 19 19 17 16 15 12 10 6 4 6 6 4 5 6 6 6 7 10 11 10 11 13 14 13 13 13 15 18 20 22 24 24 25 27 28 27 29 33 32 28 27 25 21 20 21 19 15 12 11 9 9 8 7 8 8 6 3 3 5 7 14 25 30 30 28 27 26 25 25 23 21 20 19 18 17 16
20 20 21 21 22 22 22 22 22 21 21 19 18 17 16 14 12 11 9 4 4 7 6 4 3 2 2 4 5 7 9 9 11 12 13 13 13 13 14 16 21 24 24 25 25 25 26 25 27 32 33 29 26 24 21 21 21 18 14 12 9 8 8 7 7 7 7 7 5 3 4 4 6 15 24 29 29 28 28 27 25 24 21 20 18 18 17 16
20 21 21 22 22 22 22 22 21 20 19 17 16 15 14 13 11 11 10 6 7 7 5 6 5 3 2 2 5 6 7 8 9 9 11 12 11 14 15 15 20 24 24 24 24 23 23 23 24 29 33 33 30 24 20 22 21 16 14 14 11 9 8 5 5 8 8 7 6 4 2 4 6 7 12 20 28 30 29 27 25 23 21 20 18 18 17 16
20 21 21 22 22 21 21 21 19 18 16 14 14 13 12 11 10 11 11 8 8 8 7 9 8 6 5 2 2 3 4 5 7 7 8 11 12 13 15 15 19 22 22 22 24 25 23 22 21 25 30 32 32 28 21 20 20 18 17 17 15 12 9 5 4 6 8 8 8 5 2 3 7 7 5 8 17 28 31 28 25 24 22 21 20 19 18 16
20 21 21 21 21 21 20 20 18 17 14 13 13 12 10 9 8 9 9 7 9 10 11 11 10 9 7 4 2 1 2 4 7 6 6 10 12 13 14 15 17 20 20 21 24 27 25 23 22 24 27 28 31 30 24 20 22 23 22 20 17 14 10 7 5 6 7 7 8 7 4 3 5 7 7 5 7 19 32 31 27 26 23 22 22 20 19 17
20 21 21 21 21 20 20 19 17 15 13 11 10 10 8 6 6 9 8 7 11 15 14 11 11 12 8 4 0 3 5 6 6 5 6 10 11 14 15 15 15 17 20 20 21 24 26 25 24 25 26 27 28 28 27 26 26 25 23 21 18 14 12 12 9 8 7 6 7 8 6 5 4 5 6 6 4 11 30 33 26 24 22 22 22 20 20 19
20 20 20 20 20 20 19 18 16 13 11 9 8 7 5 3 6 9 7 9 11 14 15 11 11 11 9 7 3 5 9 9 8 6 6 10 10 12 13 14 15 17 21 20 20 25 28 28 28 26 26 27 26 25 26 29 29 26 24 22 19 16 16 15 12 11 9 7 7 7 6 4 4 4 3 4 2 3 22 33 27 23 23 21 21 21 20 19
20 20 20 20 19 19 18 16 14 11 9 8 7 5 3 4 9 9 6 7 7 7 13 14 11 12 11 12 10 8 9 8 8 8 9 12 12 12 12 13 15 20 24 21 20 26 29 28 28 26 26 26 27 27 26 27 29 28 26 23 19 17 17 14 12 12 10 9 9 7 6 4 3 4 3 2 1 2 13 29 29 24 24 23 22 21 21 20
20 20 20 19 19 18 17 14 11 9 8 7 7 5 4 6 11 12 6 4 6 7 8 11 9 11 11 12 12 9 8 7 6 8 9 13 15 14 15 17 18 23 25 20 18 23 26 26 28 28 27 26 27 28 27 26 27 28 29 27 20 17 18 14 11 13 11 10 11 10 8 7 5 5 4 2 2 3 8 21 27 25 24 24 24 24 22 22
19 20 19 18 18 17 15 12 9 8 8 6 7 6 5 6 9 12 6 4 6 5 5 3 5 8 7 7 8 8 8 7 4 8 10 17 19 17 19 21 19 21 23 20 17 18 20 20 21 21 20 21 21 25 28 29 27 25 28 27 21 17 17 15 13 14 12 10 10 10 10 8 6 5 5 3 2 4 7 13 21 23 23 23 23 23 23 22
19 19 18 17 17 16 13 10 8 8 7 6 8 8 6 6 8 7 1 6 5 5 6 7 8 5 1 3 7 6 7 7 1 6 8 18 23 20 20 17 13 15 20 21 18 17 18 17 17 19 19 18 17 20 26 30 29 24 23 23 19 16 15 14 14 14 14 11 8 9 9 8 7 6 5 4 3 4 6 9 13 16 20 23 22 20 20 20
19 18 18 16 16 15 11 9 8 7 6 7 8 8 6 6 6 3 3 6 7 7 6 6 6 3 1 4 3 4 2 3 1 3 6 17 23 19 17 14 12 14 20 22 19 19 19 15 16 21 21 18 16 17 22 29 29 24 22 22 21 19 18 17 17 16 16 15 10 7 7 6 7 8 7 5 3 3 5 8 10 9 13 21 24 21 19 19
18 18 17 15 15 13 9 8 8 6 6 6 7 8 6 6 6 2 4 8 10 9 6 6 6 2 2 7 5 1 2 2 3 2 6 14 20 19 15 13 14 16 19 22 21 21 20 15 16 19 16 14 14 16 21 28 31 28 27 28 24 21 21 20 19 16 15 16 12 7 6 6 7 7 8 8 7 5 4 6 9 7 7 17 25 23 19 19
18 17 17 15 14 12 8 7 8 7 6 6 7 7 6 8 8 1 7 11 11 8 6 7 7 7 6 6 6 4 3 1 2 6 6 8 15 21 18 13 15 19 19 20 23 24 23 21 19 19 17 14 13 17 23 27 29 30 30 31 28 23 21 20 18 14 13 13 10 6 6 8 8 6 6 8 8 8 6 5 8 8 8 14 21 21 19 19
18 17 16 15 14 11 9 8 8 7 6 7 8 7 7 10 10 1 7 10 12 8 6 9 10 12 11 8 8 7 5 4 5 8 8 8 12 21 20 16 19 22 21 20 24 27 27 25 20 19 21 18 14 15 23 27 27 29 29 29 27 25 23 20 15 12 11 10 8 6 5 6 7 7 6 6 6 8 8 7 8 9 10 14 17 18 18 19
18 16 15 15 14 11 9 9 8 8 9 10 10 10 11 12 8 5 5 6 10 8 5 11 14 14 13 13 13 11 6 8 8 10 9 8 10 15 18 18 21 24 23 21 24 30 31 25 19 20 22 20 15 14 18 27 29 27 26 25 23 23 24 21 14 9 11 10 6 6 6 4 5 7 8 7 7 9 10 10 9 9 11 14 15 16 17 19
19 16 14 14 14 11 9 10 10 10 10 9 10 11 12 10 8 8 6 6 7 6 7 14 17 13 13 16 15 11 9 12 12 12 12 12 11 11 15 18 18 22 25 24 26 32 34 27 22 25 25 21 20 17 17 26 32 28 24 23 22 22 23 21 14 10 12 12 9 9 9 6 6 8 11 10 9 10 11 11 11 11 13 15 17 19 21 24
21 18 15 14 14 12 10 11 11 10 9 8 10 14 11 8 11 11 9 7 7 6 8 13 14 13 16 18 16 13 12 13 13 13 13 14 13 11 14 14 13 18 24 27 27 30 33 29 26 29 27 22 21 20 17 23 33 33 29 28 27 24 23 21 17 15 15 13 14 15 12 10 10 11 13 13 11 11 12 12 12 12 14 17 19 21 22 23
22 20 16 14 14 14 12 11 10 7 8 10 11 11 8 7 13 13 9 8 10 9 8 8 9 15 19 18 17 17 15 11 11 15 16 16 14 12 14 13 11 14 22 28 28 27 31 32 31 30 29 23 20 20 19 22 31 36 34 33 32 28 26 24 21 19 18 16 17 18 15 15 15 14 15 16 14 13 13 14 15 15 15 16 17 18 19 21
23 22 19 16 15 14 13 12 10 7 9 12 10 7 8 8 8 10 11 12 14 13 12 8 9 16 20 19 18 20 18 13 13 16 17 16 15 14 14 12 11 13 20 27 30 28 30 34 33 30 29 27 22 20 20 22 28 33 34 35 34 31 29 28 26 24 21 19 19 19 18 17 18 18 18 18 18 16 15 15 16 17 18 19 18 18 18 21
23 22 19 15 14 14 13 13 14 12 11 11 8 5 8 12 9 9 12 14 15 15 15 12 8 14 20 20 19 19 19 18 17 16 15 16 18 19 16 12 10 12 16 23 29 31 32 34 34 31 30 29 25 22 22 26 30 31 33 35 35 34 32 31 30 27 25 23 22 22 22 21 20 21 22 21 20 20 18 16 16 17 19 20 21 20 20 22
23 22 18 15 13 12 12 13 15 16 13 12 10 9 9 13 12 10 10 10 11 12 13 13 11 13 19 22 21 21 21 21 21 17 16 17 18 18 17 13 11 12 15 19 25 31 32 33 34 33 30 27 26 26 25 28 33 33 31 33 35 35 34 32 30 29 29 28 25 25 27 25 24 25 24 23 22 21 20 19 18 18 18 19 21 21 21 22
22 21 19 17 14 12 12 12 15 17 15 14 13 11 13 14 10 8 10 11 9 8 10 12 12 12 16 19 21 24 24 23 22 19 16 16 13 13 13 11 12 15 17 19 22 25 29 31 31 31 31 29 28 30 28 29 34 35 32 32 32 34 35 32 30 31 33 31 28 27 28 29 28 27 26 26 25 23 22 20 19 19 18 18 19 19 20 21
21 21 20 19 17 15 14 13 14 17 16 14 13 12 14 16 13 11 13 12 9 9 11 12 12 12 13 13 15 21 24 21 20 18 15 14 13 11 9 10 12 14 16 19 22 23 26 31 31 29 30 30 29 28 27 28 33 37 36 33 30 32 35 32 31 33 34 34 32 29 28 29 31 31 30 29 27 26 24 22 21 20 19 19 19 17 18 21
20 21 20 20 19 18 17 15 14 16 17 15 14 13 13 17 19 17 17 15 12 10 10 12 14 14 13 9 10 15 17 17 17 16 13 13 14 11 8 10 13 14 14 17 21 23 25 31 34 31 29 29 28 25 22 25 31 37 39 36 30 30 33 32 32 33 33 35 35 31 30 30 32 33 32 31 29 28 26 25 24 23 21 21 21 20 19 20
20 20 20 18 18 19 19 17 15 17 19 17 16 14 13 17 22 20 19 19 16 12 10 11 13 13 11 8 7 9 10 11 13 13 11 11 13 13 12 12 13 13 12 11 14 19 23 27 32 35 33 30 29 25 20 22 30 35 40 39 32 29 33 36 36 34 33 33 33 32 32 34 34 34 33 32 30 29 28 28 27 26 24 23 23 22 21 18
21 20 18 17 18 18 19 19 17 18 21 21 19 16 15 20 22 20 18 19 18 14 12 12 14 14 10 7 6 6 7 8 9 10 9 7 9 12 13 12 12 12 10 8 9 14 20 23 26 33 34 29 28 29 24 23 29 34 38 41 36 32 34 37 38 37 34 32 31 29 29 33 35 35 34 33 32 31 30 31 31 30 29 27 25 24 24 21
Wind_Direction
8 5 359 354 348 340 331 322 315 310 304 300 294 289 286 283 282 280 278 275 273 270 265 261 257 253 248 244 241 238 237 240 245 245 239 231 227 224 224 221 212 213 220 223 224 227 230 231 233 234 237 240 244 252 261 286 299 304 321 290 178 154 157 160 159 160 160 164 169 162 165 177 157 155 169 153 148 134 134 132 129 147 134 133 144 135 133 132
8 4 358 352 345 337 330 323 316 309 302 298 293 290 286 283 280 277 276 273 271 270 267 264 259 255 250 245 241 237 234 236 242 243 239 233 230 227 225 223 215 213 219 223 223 226 230 231 233 235 237 235 235 246 258 283 291 294 314 298 224 173 162 164 166 166 161 162 169 169 168 175 164 158 173 163 151 143 139 133 134 149 136 131 141 137 131 126
10 4 359 353 345 338 331 324 317 310 304 298 295 293 291 288 285 280 277 273 271 269 268 266 262 257 252 248 243 239 234 234 240 240 239 234 230 229 227 224 218 214 218 222 223 226 229 231 234 236 239 237 235 246 257 272 284 297 315 306 257 206 176 169 167 165 165 166 169 172 171 173 175 163 166 169 158 153 149 143 149 158 147 140 145 140 132 124
10 6 360 354 348 341 334 327 319 313 310 306 304 303 300 298 295 290 284 278 275 272 269 266 263 259 254 250 245 241 235 233 238 237 237 235 231 229 229 226 220 215 216 221 223 226 228 231 233 234 238 238 235 242 251 267 290 315 318 295 265 230 194 175 170 167 169 171 171 179 174 167 173 166 163 167 157 152 149 145 159 166 155 147 148 144 133 125
9 5 1 356 350 344 338 331 325 320 316 314 314 313 311 308 304 301 295 289 283 278 274 269 265 261 256 252 247 243 237 234 237 236 236 236 233 230 228 227 222 217 216 219 222 224 227 230 234 233 235 234 232 236 246 277 297 307 313 295 269 231 201 186 179 171 168 166 165 182 181 169 173 170 167 166 155 152 146 143 165 169 157 149 145 143 138 131
7 4 1 357 351 346 340 334 328 324 321 320 319 318 317 314 313 310 307 302 296 289 282 275 269 264 259 255 249 244 238 235 235 235 235 236 234 232 229 226 223 219 217 218 221 223 224 228 233 233 235 233 230 233 245 286 291 284 300 299 266 228 206 193 185 177 171 165 164 180 186 182 184 177 175 168 154 153 148 146 163 168 157 148 138 141 142 139
4 2 359 355 351 346 340 335 330 326 324 322 321 320 320 319 318 316 314 311 307 301 292 284 275 267 262 257 252 247 240 235 232 234 234 234 234 232 231 227 223 220 217 218 221 222 223 226 230 233 235 233 232 236 243 270 281 275 294 307 277 227 206 195 190 183 176 172 170 176 185 188 185 178 177 169 157 156 152 148 163 169 160 151 137 138 142 137
359 358 356 353 349 345 340 335 330 327 324 322 321 321 321 321 321 320 319 316 313 308 301 293 283 273 265 260 256 250 242 235 230 230 232 233 233 232 231 229 224 221 218 218 220 221 224 226 228 231 234 234 232 233 238 258 276 270 276 314 311 233 208 199 193 185 179 178 175 175 183 186 177 176 178 169 163 163 158 152 162 169 163 156 140 136 137 134
355 354 352 349 346 342 338 334 330 327 324 322 321 321 321 322 322 321 319 317 314 311 306 300 292 281 270 263 260 253 246 239 231 228 231 232 233 232 231 230 227 222 219 218 219 221 223 225 227 228 233 237 234 230 234 252 267 268 266 294 325 271 215 202 191 185 180 179 181 179 179 179 168 175 184 169 162 166 165 156 160 169 166 156 142 135 132 132
350 349 348 346 343 340 336 333 329 325 323 322 321 321 321 321 321 320 318 315 313 310 307 302 296 287 277 268 262 256 251 245 234 228 230 231 232 232 230 229 228 223 219 217 217 219 222 224 224 222 225 234 237 232 231 245 255 264 266 276 316 308 217 199 187 184 182 178 179 175 176 177 165 167 173 166 164 168 167 160 161 171 166 153 143 138 135 133
346 345 344 342 340 337 334 331 327 323 322 321 321 321 320 320 319 317 315 313 310 308 305 301 295 289 280 272 266 260 255 249 239 229 228 229 229 231 230 229 227 224 220 217 217 219 221 223 223 220 218 226 234 233 232 246 253 263 272 268 298 317 212 197 187 185 181 175 172 169 173 175 166 168 174 173 177 173 168 164 164 171 166 153 146 143 141 138
342 341 340 339 338 335 332 329 324 322 321 320 319 319 319 318 317 315 313 310 308 305 303 299 293 286 279 273 268 263 254 250 244 232 228 228 227 228 229 228 226 224 221 217 217 219 220 221 221 218 216 220 228 230 232 247 255 267 283 260 269 316 221 200 190 185 178 172 172 169 170 173 173 181 184 185 186 176 173 169 168 170 167 159 152 147 145 141
338 338 337 336 335 333 330 326 322 321 319 319 318 318 318 316 315 313 311 309 306 303 301 297 290 282 275 270 266 262 254 248 248 239 232 229 228 227 227 227 226 224 222 218 217 218 220 221 221 218 214 215 222 223 224 243 254 255 287 258 241 333 249 201 188 182 176 172 174 170 168 173 179 176 178 186 182 174 178 174 171 169 169 166 160 154 147 142
335 335 334 334 333 331 328 324 321 320 318 317 317 317 316 315 313 311 308 306 304 302 299 294 286 278 272 266 263 262 258 250 246 243 238 233 230 229 227 226 226 223 222 220 217 218 219 220 220 218 214 213 217 221 222 233 244 238 268 268 237 346 256 194 185 182 180 176 171 168 169 174 176 164 166 176 177 176 179 176 174 169 171 174 167 160 149 144
333 332 332 332 331 330 326 322 320 318 317 317 316 316 315 314 312 309 307 305 303 300 297 291 283 275 268 263 261 259 258 253 245 240 239 237 233 231 229 226 225 223 222 221 219 218 218 218 218 217 216 215 216 219 220 223 235 242 259 263 240 301 285 190 189 188 184 179 170 168 175 173 170 165 165 174 185 183 176 175 178 173 174 178 173 165 153 148
331 330 330 330 330 328 325 322 319 317 317 316 316 315 314 313 310 308 306 305 304 301 296 289 281 272 265 261 259 259 257 253 246 238 237 238 235 232 230 228 226 224 221 222 221 219 218 217 217 216 215 216 218 218 216 218 230 248 258 266 248 222 261 219 200 193 184 178 171 173 179 169 166 171 173 181 191 188 178 174 178 177 176 179 178 171 160 153
329 329 329 329 328 327 324 321 319 318 318 317 316 316 314 312 310 308 307 307 305 301 295 287 278 271 265 262 260 257 251 247 243 239 239 241 237 231 229 228 226 224 221 221 221 219 218 216 215 216 211 210 216 218 215 217 225 242 258 267 261 226 233 339 214 194 186 179 176 180 182 170 166 174 180 186 187 184 182 177 177 178 178 180 181 177 167 156
327 328 328 328 327 326 323 321 319 319 318 317 317 315 314 312 310 309 309 308 304 299 292 284 277 270 266 264 261 254 247 243 241 242 244 245 242 233 228 228 226 224 221 220 221 219 218 214 213 216 212 205 209 215 214 216 220 233 256 261 265 246 231 319 311 194 189 183 182 185 184 175 170 174 180 187 188 183 181 180 177 177 180 181 181 182 172 157
326 327 327 327 327 324 322 321 319 319 319 318 317 315 313 312 311 311 310 307 302 296 292 286 277 268 262 258 255 250 243 242 241 242 245 248 246 236 229 227 226 224 221 220 220 218 217 214 213 216 216 209 207 212 213 213 221 231 247 261 257 247 223 252 6 187 186 184 186 188 185 179 177 177 176 185 193 187 180 180 178 178 181 182 182 185 179 162
325 326 327 327 326 324 322 321 320 319 319 318 315 313 313 314 313 312 310 306 300 294 289 285 276 264 255 247 242 238 235 237 239 240 244 247 247 238 229 225 224 222 220 220 220 217 216 214 213 215 219 216 213 214 213 212 219 228 233 254 253 237 214 209 59 161 181 188 192 190 187 185 185 182 177 187 196 192 184 179 178 180 182 183 184 188 185 169
325 326 327 326 325 324 322 320 320 320 320 317 314 314 315 315 315 315 312 306 300 295 288 281 273 263 254 245 238 234 233 235 239 242 245 248 247 240 232 226 222 219 217 219 219 216 215 213 211 212 216 220 219 215 213 212 215 222 228 241 246 230 207 202 188 155 178 195 201 198 191 187 188 186 184 191 197 195 189 181 178 182 186 185 185 192 191 174
325 326 326 326 325 324 322 321 321 321 320 317 315 317 317 318 320 317 312 307 303 295 288 279 269 262 255 247 239 236 235 235 237 240 244 249 248 240 233 226 219 216 215 217 219 217 215 213 211 211 215 221 222 215 212 212 209 214 217 219 226 217 204 205 201 194 188 195 207 205 196 190 189 191 194 194 193 196 195 186 183 184 189 190 187 193 194 180
325 326 327 326 324 324 323 322 322 322 320 318 319 320 321 323 322 318 315 311 304 296 290 281 269 260 253 247 240 234 234 235 234 236 240 247 247 239 231 223 217 212 213 216 216 215 215 213 210 211 215 221 223 217 214 208 201 206 208 204 212 208 207 215 207 213 238 186 192 202 199 194 191 195 201 196 191 195 198 192 188 188 192 193 189 192 193 187
326 327 327 326 325 324 324 324 324 323 322 322 323 322 325 327 325 324 322 312 304 305 303 291 277 263 249 243 238 231 229 230 230 232 238 245 245 237 227 219 215 210 208 212 212 208 211 211 208 209 212 219 222 218 216 210 197 199 206 207 210 206 209 224 220 224 249 247 167 184 196 198 196 198 202 200 194 195 198 196 192 191 195 196 191 192 193 190
326 327 327 326 326 325 325 326 325 324 324 323 323 326 330 333 331 330 326 315 315 327 318 289 270 259 244 238 237 231 227 226 228 230 235 240 237 231 223 215 210 206 202 205 205 202 207 208 207 208 209 214 219 216 218 218 205 197 202 211 213 212 218 230 234 235 245 264 193 175 193 203 205 204 202 202 201 198 197 196 196 195 196 197 195 195 195 193
327 327 327 327 326 326 326 327 326 325 325 325 330 334 335 337 335 329 323 322 345 340 318 287 267 255 240 233 232 231 225 218 219 228 232 229 225 222 220 212 204 199 197 198 197 197 202 204 204 208 208 211 216 215 218 222 217 207 203 210 217 221 227 231 243 251 251 256 251 210 211 218 215 208 204 206 208 205 200 196 197 199 196 195 195 197 197 194
328 327 328 328 327 328 328 328 328 328 330 333 337 336 334 335 334 328 324 336 6 345 335 335 324 301 253 218 215 221 220 213 212 222 229 224 218 210 207 207 199 193 193 193 190 192 197 199 203 207 206 206 209 210 215 221 222 218 211 212 220 228 229 234 252 263 260 250 243 235 234 236 213 201 204 212 215 212 206 199 197 197 195 194 194 195 196 194
328 328 329 328 327 329 330 330 332 332 334 335 332 331 333 332 332 338 343 359 5 357 18 24 6 1 349 233 213 211 210 213 207 210 220 217 212 203 196 197 197 193 193 191 183 180 185 191 199 208 207 207 207 204 207 218 220 215 216 219 224 229 224 228 257 260 255 243 236 241 251 241 221 204 207 216 221 218 209 200 198 196 193 193 192 193 194 193
329 329 329 328 328 329 331 332 333 332 332 331 328 330 336 341 348 353 353 358 357 359 20 17 15 32 36 26 266 234 209 207 195 190 200 198 196 197 193 192 196 195 191 186 178 170 171 177 187 201 205 207 210 204 199 211 214 207 212 218 218 221 218 209 233 245 241 232 230 234 260 254 232 229 227 220 226 222 212 203 198 195 192 190 191 192 192 192
330 330 329 328 328 330 332 333 333 331 330 331 331 330 336 355 1 346 344 354 360 9 20 20 26 33 30 31 16 219 178 175 173 167 176 180 182 184 183 185 191 193 187 180 181 177 171 170 179 193 198 200 206 205 197 203 210 209 213 215 212 213 212 200 202 225 228 220 224 228 238 266 244 236 239 243 246 222 213 206 197 193 189 188 190 190 187 188
332 331 329 328 328 330 333 333 332 331 329 332 333 329 339 360 342 327 337 356 7 13 14 27 46 37 29 33 356 166 129 125 129 124 156 168 176 179 175 177 184 189 184 176 181 180 170 168 177 189 194 196 201 202 201 205 211 211 213 212 207 203 206 203 202 217 217 202 214 222 231 261 259 247 245 247 277 223 209 205 198 192 189 188 192 190 185 185
333 331 329 328 329 330 331 333 333 329 330 332 327 327 347 344 312 323 351 13 23 20 4 16 60 55 49 58 60 116 103 91 90 96 140 147 157 172 165 167 175 174 169 164 166 166 162 168 177 185 192 194 195 198 204 210 212 208 207 208 202 195 200 205 210 223 224 214 214 214 220 255 252 237 248 237 278 228 202 200 196 192 190 189 194 194 190 188
333 331 329 329 330 329 330 334 332 327 329 325 313 316 321 295 302 317 356 29 52 46 7 8 46 53 47 48 41 62 80 72 85 113 141 136 137 152 149 154 164 160 158 158 160 162 165 172 177 184 191 190 192 196 200 211 215 210 207 207 203 195 195 200 211 217 217 225 231 223 219 249 258 231 242 230 210 83 185 193 194 192 188 187 193 197 197 193
334 332 330 329 330 328 329 333 329 323 322 309 299 301 289 292 304 310 332 72 104 92 37 7 29 47 38 32 23 27 47 49 83 113 138 137 132 141 144 147 153 155 160 163 165 169 174 180 183 189 193 195 198 196 192 203 214 217 214 210 208 207 202 206 222 219 214 226 235 236 237 249 268 245 235 229 183 119 159 187 194 194 190 189 192 195 196 196
334 332 331 329 328 327 326 330 327 317 312 297 289 288 272 273 293 303 314 122 130 124 114 89 76 66 34 25 26 16 8 6 89 111 122 136 138 142 147 151 154 157 167 169 167 173 179 186 192 192 191 195 200 197 194 196 201 213 220 214 209 212 212 218 235 233 227 232 233 236 243 249 263 252 224 213 194 160 149 173 189 196 200 201 199 196 195 196
334 332 331 328 327 325 322 325 323 311 303 285 278 282 288 292 288 289 236 154 167 172 148 123 106 95 31 57 44 13 339 329 140 125 127 143 144 144 149 162 176 175 178 172 160 165 173 180 183 174 171 180 187 194 198 197 194 201 218 218 213 216 218 223 235 239 235 232 227 228 234 240 242 231 202 188 193 180 161 162 177 193 205 209 205 201 199 198
333 331 330 327 325 323 317 317 317 306 291 274 272 282 297 297 276 251 159 161 174 175 151 114 103 77 103 133 68 13 14 331 302 129 144 154 152 152 161 178 194 186 178 169 159 163 169 175 176 166 166 175 178 184 193 198 198 199 208 214 215 217 220 220 224 231 232 227 222 217 216 222 227 227 226 221 212 184 166 165 172 188 209 209 204 201 201 201
332 330 329 326 322 319 311 310 310 295 278 265 265 278 279 259 243 210 134 156 174 184 169 121 109 97 111 140 144 127 105 351 310 147 156 166 166 171 173 171 180 184 179 172 165 159 158 164 166 159 163 175 176 180 185 192 199 202 207 213 214 214 218 219 218 221 225 225 223 216 212 214 214 221 233 234 227 215 190 169 173 180 198 198 194 194 197 200
329 328 328 322 318 315 301 296 298 283 271 254 250 261 258 259 267 227 135 168 192 211 188 145 135 150 155 143 145 169 187 240 216 197 220 216 188 180 173 163 177 188 190 179 161 149 147 149 151 156 164 163 162 181 188 189 195 201 208 214 216 213 209 210 217 221 222 227 230 224 223 226 221 220 226 229 227 222 215 192 180 176 165 172 181 187 194 197
326 327 326 318 313 308 292 287 288 272 254 233 231 231 231 263 279 137 131 176 204 223 188 167 173 169 168 176 161 154 188 212 200 212 237 244 205 188 181 176 179 186 193 181 159 150 151 150 152 163 164 154 146 170 185 189 195 201 207 212 214 210 203 200 207 215 211 215 226 221 217 228 232 234 228 217 216 213 207 201 195 186 171 167 174 185 192 196
323 324 323 315 309 305 290 285 277 256 247 234 225 226 234 253 255 188 160 190 209 226 194 178 191 182 172 180 164 144 172 209 221 237 245 241 220 203 195 188 183 186 190 183 169 161 156 152 153 154 155 160 160 153 168 184 192 199 205 209 209 205 201 195 188 186 188 193 210 212 205 214 228 229 219 199 196 205 203 200 202 202 192 182 179 183 189 194
319 321 321 314 308 303 287 275 265 257 263 256 234 236 242 238 222 213 218 219 228 240 197 191 202 195 181 183 176 163 176 188 199 219 231 236 236 227 211 196 188 190 190 187 182 168 158 156 152 145 149 163 170 161 162 179 189 195 199 202 201 199 198 191 175 168 181 192 206 207 203 205 206 212 212 200 191 199 203 199 197 206 206 198 194 194 195 196
317 319 321 312 302 295 277 261 259 262 271 264 248 252 250 207 197 218 225 225 245 250 202 201 210 204 192 190 186 179 179 185 194 206 224 236 234 233 227 210 194 194 192 191 189 173 162 164 161 155 159 162 164 169 169 177 187 193 194 194 192 191 190 180 164 166 181 194 207 211 215 214 204 202 206 205 197 195 199 197 193 202 211 210 208 208 210 213
316 318 320 315 303 295 284 265 259 264 263 256 252 256 252 199 198 218 232 239 248 253 244 228 206 198 197 195 193 188 183 193 209 215 228 235 226 229 239 228 207 199 196 196 195 181 170 174 171 167 171 170 164 167 168 176 187 192 195 194 188 184 181 174 167 173 182 191 200 207 216 217 211 206 205 205 202 197 196 195 194 200 209 214 219 221 228 235
316 316 321 323 312 304 295 270 249 239 238 243 245 246 257 251 221 216 225 234 239 243 248 238 195 195 201 198 195 195 191 197 214 221 230 233 220 218 231 229 207 197 199 200 198 189 180 180 179 175 174 172 169 165 171 184 189 190 195 195 188 184 181 177 177 182 188 194 196 199 205 209 210 209 207 206 206 204 201 199 199 204 209 215 221 222 228 235
315 315 321 323 311 301 294 268 245 234 227 229 222 203 246 257 246 227 229 239 244 245 247 245 211 197 203 200 200 205 203 206 217 225 230 230 220 215 226 232 210 195 198 200 199 197 190 181 178 177 174 170 170 171 181 193 190 186 193 195 190 188 187 184 185 190 196 199 196 198 204 208 212 214 212 209 209 210 209 208 209 212 215 220 222 221 223 230
312 313 315 311 301 292 287 271 252 244 234 225 210 181 202 238 250 254 253 255 254 245 243 244 227 202 201 203 207 212 215 219 225 228 231 233 224 217 226 234 215 200 197 196 199 204 200 186 175 175 175 172 174 179 191 199 190 183 190 194 193 194 194 192 195 201 203 202 202 205 209 214 219 221 219 214 212 214 216 216 217 220 222 225 227 225 224 228
309 309 307 302 297 285 276 268 257 254 250 241 229 202 197 221 243 258 252 254 252 230 220 225 223 211 207 212 216 217 220 226 225 224 236 251 245 229 231 233 220 210 200 192 196 204 207 200 185 178 179 177 177 183 195 200 192 186 188 190 192 197 197 196 201 205 204 204 208 211 213 217 221 225 227 223 218 217 219 219 219 222 227 230 233 234 232 230
309 308 305 301 296 286 274 264 258 260 260 252 238 217 203 208 214 227 240 250 252 238 227 222 220 223 224 222 219 221 225 228 225 224 237 255 256 250 249 240 230 224 209 198 199 202 208 209 200 188 185 184 181 185 192 195 191 190 190 188 190 194 195 196 202 205 205 205 208 212 213 217 221 226 232 231 225 221 221 223 222 222 225 229 235 241 242 237
310 306 304 301 295 286 275 263 255 255 260 256 239 226 216 211 214 224 234 241 246 250 247 228 221 233 244 238 220 221 224 222 222 222 218 224 233 237 237 227 226 230 221 206 205 207 209 211 206 198 196 197 197 198 195 190 190 190 190 191 192 192 195 200 202 204 206 206 208 213 215 217 221 224 230 233 231 226 223 225 228 228 228 227 230 236 240 238
310 305 303 298 290 283 273 262 251 246 256 258 243 233 225 217 224 233 236 238 245 251 249 235 233 247 260 257 238 227 221 218 222 225 216 213 221 221 218 215 215 223 226 213 207 210 212 213 209 204 205 210 213 212 205 195 193 191 191 194 196 193 196 202 204 206 209 208 210 216 218 221 223 224 228 232 233 232 229 229 230 233 235 233 231 233 234 232
311 306 303 295 284 277 269 260 249 240 246 250 242 234 225 224 236 244 239 239 245 244 239 234 239 250 256 259 249 215 204 218 228 235 237 229 220 222 229 231 225 223 222 212 207 209 211 212 209 204 205 213 221 221 216 205 198 195 194 197 199 196 196 201 205 208 210 211 214 217 218 220 223 226 229 232 234 237 236 235 232 232 236 238 236 236 234 231
Height
5886 5886 5885 5885 5884 5884 5883 5883 5882 5882 5882 5881 5881 5880 5880 5880 5880 5880 5879 5879 5879 5879 5879 5879 5879 5879 5880 5880 5880 5881 5881 5881 5881 5882 5882 5883 5883 5883 5885 5886 5888 5889 5890 5891 5892 5893 5893 5894 5895 5896 5896 5896 5896 5897 5896 5895 5895 5895 5894 5893 5891 5890 5890 5891 5892 5893 5896 5898 5900 5901 5902 5903 5903 5903 5904 5905 5907 5908 5909 5911 5911 5911 5912 5913 5913 5911 5911 5912
5886 5885 5884 5884 5883 5883 5882 5882 5881 5881 5880 5880 5879 5879 5879 5879 5878 5878 5878 5878 5878 5877 5877 5877 5878 5878 5878 5878 5879 5879 5880 5880 5880 5880 5881 5882 5882 5883 5884 5885 5886 5888 5889 5890 5891 5892 5892 5893 5894 5895 5895 5895 5896 5896 5895 5895 5895 5895 5895 5894 5893 5892 5892 5893 5893 5894 5897 5898 5899 5901 5902 5904 5903 5903 5905 5906 5907 5908 5910 5911 5912 5911 5912 5914 5913 5912 5912 5912
5885 5884 5884 5883 5882 5882 5881 5881 5880 5880 5879 5879 5878 5878 5877 5877 5877 5877 5876 5876 5876 5876 5876 5876 5876 5876 5876 5877 5877 5878 5878 5879 5878 5879 5880 5881 5881 5882 5883 5884 5885 5887 5888 5889 5890 5891 5891 5892 5893 5893 5894 5894 5895 5895 5895 5895 5895 5895 5895 5895 5894 5894 5895 5896 5896 5897 5900 5900 5901 5902 5901 5903 5903 5904 5905 5906 5907 5908 5910 5911 5911 5911 5912 5913 5914 5913 5913 5913
5884 5884 5883 5882 5882 5881 5880 5880 5879 5878 5878 5877 5877 5876 5876 5876 5875 5875 5875 5875 5874 5874 5874 5874 5874 5874 5874 5875 5875 5876 5877 5877 5877 5878 5879 5879 5880 5881 5882 5883 5884 5886 5887 5888 5889 5890 5890 5891 5891 5892 5892 5893 5894 5894 5895 5895 5894 5894 5894 5894 5894 5895 5895 5895 5896 5897 5899 5899 5902 5904 5903 5902 5903 5904 5905 5906 5907 5908 5910 5911 5911 5911 5912 5913 5914 5914 5913 5913
5884 5883 5882 5881 5881 5880 5879 5878 5878 5877 5876 5876 5875 5875 5875 5874 5874 5873 5873 5873 5873 5872 5872 5872 5872 5872 5872 5872 5873 5874 5875 5875 5876 5877 5878 5878 5879 5880 5880 5882 5883 5884 5886 5887 5887 5888 5889 5889 5890 5891 5892 5892 5894 5894 5894 5894 5894 5893 5893 5893 5893 5894 5894 5894 5895 5896 5897 5898 5901 5905 5906 5905 5904 5905 5905 5905 5906 5907 5909 5911 5911 5911 5912 5913 5914 5914 5914 5913
5883 5882 5881 5880 5879 5879 5878 5877 5877 5876 5875 5875 5874 5873 5873 5872 5872 5871 5871 5871 5871 5870 5870 5870 5870 5870 5870 5870 5870 5871 5872 5873 5874 5875 5876 5877 5877 5878 5879 5880 5881 5883 5884 5885 5886 5887 5888 5888 5889 5890 5890 5891 5892 5893 5894 5894 5893 5892 5893 5893 5892 5892 5893 5893 5894 5896 5896 5897 5899 5902 5905 5906 5905 5905 5905 5905 5906 5907 5909 5910 5911 5911 5912 5913 5914 5914 5914 5914
5882 5881 5880 5879 5878 5877 5877 5876 5875 5875 5874 5873 5872 5872 5871 5871 5870 5869 5869 5868 5868 5868 5868 5867 5867 5867 5867 5867 5867 5868 5869 5871 5873 5873 5874 5874 5875 5876 5877 5878 5880 5881 5883 5884 5885 5886 5887 5887 5888 5888 5889 5890 5892 5893 5893 5893 5892 5891 5892 5892 5891 5891 5892 5893 5894 5895 5896 5897 5897 5899 5902 5905 5905 5905 5905 5905 5906 5907 5908 5910 5911 5911 5912 5913 5914 5914 5914 5914
5881 5880 5879 5878 5877 5876 5875 5874 5874 5873 5872 5871 5870 5870 5869 5868 5868 5867 5866 5866 5865 5865 5865 5865 5865 5865 5864 5864 5864 5865 5867 5868 5870 5870 5870 5871 5873 5874 5875 5876 5878 5879 5881 5882 5884 5885 5886 5886 5887 5888 5888 5889 5891 5892 5892 5892 5891 5891 5891 5890 5889 5889 5890 5891 5892 5894 5896 5896 5896 5898 5901 5903 5904 5905 5904 5905 5906 5907 5908 5910 5911 5911 5912 5913 5914 5914 5915 5915
5880 5879 5877 5876 5875 5874 5873 5873 5872 5871 5870 5869 5868 5868 5867 5866 5865 5864 5864 5863 5863 5862 5862 5862 5862 5862 5861 5861 5861 5862 5863 5865 5866 5867 5868 5869 5870 5871 5873 5874 5876 5877 5879 5881 5882 5884 5884 5884 5885 5887 5888 5889 5890 5891 5891 5891 5891 5891 5891 5890 5889 5888 5889 5890 5891 5893 5894 5895 5897 5898 5900 5902 5903 5905 5904 5904 5905 5907 5908 5909 5911 5912 5912 5913 5914 5914 5914 5915
5879 5877 5876 5875 5874 5873 5872 5871 5870 5869 5868 5867 5866 5866 5865 5864 5863 5862 5861 5860 5860 5859 5859 5858 5858 5858 5858 5858 5858 5859 5860 5861 5863 5865 5864 5865 5867 5868 5870 5872 5873 5875 5877 5879 5881 5881 5882 5882 5883 5886 5888 5888 5889 5890 5891 5891 5891 5891 5891 5890 5889 5887 5887 5889 5890 5892 5893 5894 5897 5899 5900 5901 5902 5904 5904 5904 5905 5907 5908 5908 5910 5912 5913 5914 5914 5915 5915 5915
5877 5876 5875 5874 5872 5871 5870 5869 5868 5867 5866 5865 5864 5863 5862 5862 5861 5860 5859 5858 5857 5856 5856 5855 5855 5855 5855 5855 5854 5855 5857 5858 5860 5861 5861 5862 5863 5865 5867 5869 5871 5873 5875 5877 5878 5879 5880 5881 5882 5884 5886 5886 5888 5889 5890 5891 5891 5891 5891 5890 5889 5887 5886 5888 5889 5891 5893 5894 5897 5898 5900 5901 5902 5903 5904 5904 5905 5907 5907 5908 5910 5911 5913 5914 5915 5915 5915 5916
5876 5874 5873 5872 5871 5869 5868 5867 5866 5865 5864 5863 5862 5861 5860 5859 5858 5857 5856 5855 5854 5854 5853 5853 5852 5852 5851 5851 5851 5852 5854 5855 5856 5857 5857 5858 5859 5861 5863 5866 5868 5870 5873 5875 5876 5877 5878 5879 5881 5882 5884 5886 5887 5889 5890 5890 5890 5890 5890 5890 5889 5888 5887 5887 5889 5890 5892 5894 5897 5899 5900 5901 5902 5903 5904 5905 5906 5907 5907 5908 5909 5911 5913 5914 5914 5915 5916 5916
5874 5873 5871 5870 5869 5868 5867 5865 5864 5863 5862 5861 5860 5859 5858 5857 5856 5855 5854 5853 5852 5851 5850 5850 5849 5849 5848 5848 5847 5847 5850 5852 5853 5853 5853 5854 5856 5858 5860 5863 5865 5868 5870 5872 5874 5875 5877 5878 5879 5881 5883 5885 5886 5887 5888 5889 5889 5890 5890 5889 5888 5887 5886 5887 5888 5890 5891 5893 5897 5899 5899 5901 5903 5904 5905 5905 5905 5907 5907 5908 5909 5911 5912 5913 5914 5915 5915 5916
5873 5871 5870 5868 5867 5866 5865 5863 5862 5861 5860 5859 5857 5856 5855 5854 5853 5852 5851 5850 5849 5848 5847 5847 5846 5846 5846 5845 5844 5844 5847 5849 5851 5851 5850 5850 5853 5855 5857 5860 5863 5865 5867 5869 5871 5873 5874 5876 5878 5880 5882 5884 5885 5886 5887 5888 5888 5889 5889 5888 5887 5886 5886 5886 5888 5890 5891 5893 5896 5898 5899 5902 5903 5904 5906 5906 5905 5906 5907 5908 5909 5910 5912 5913 5914 5915 5915 5916
5871 5870 5868 5867 5865 5864 5863 5861 5860 5859 5858 5856 5855 5854 5853 5852 5850 5849 5848 5847 5846 5845 5844 5844 5843 5843 5843 5842 5841 5842 5843 5846 5848 5849 5847 5847 5849 5852 5854 5857 5860 5863 5865 5867 5869 5870 5872 5874 5876 5879 5882 5884 5884 5885 5886 5887 5888 5888 5888 5887 5886 5886 5887 5887 5887 5890 5892 5893 5895 5896 5899 5901 5902 5903 5905 5905 5905 5906 5907 5907 5909 5910 5911 5913 5914 5915 5916 5916
5869 5868 5866 5865 5863 5862 5861 5859 5858 5857 5855 5854 5853 5852 5850 5849 5848 5846 5845 5844 5843 5842 5841 5840 5840 5840 5840 5839 5839 5840 5841 5842 5844 5845 5845 5844 5846 5848 5851 5854 5857 5860 5862 5865 5867 5869 5871 5873 5875 5877 5880 5882 5883 5884 5885 5886 5887 5887 5887 5886 5886 5886 5886 5887 5887 5888 5890 5892 5894 5896 5898 5900 5901 5903 5904 5904 5905 5907 5907 5907 5908 5910 5911 5912 5913 5915 5916 5916
5867 5866 5864 5863 5861 5860 5858 5857 5856 5854 5853 5852 5850 5849 5847 5846 5845 5843 5842 5841 5840 5839 5838 5837 5837 5837 5837 5837 5837 5837 5838 5838 5840 5841 5842 5842 5843 5845 5848 5851 5854 5856 5860 5862 5864 5867 5869 5871 5873 5875 5877 5879 5880 5882 5883 5885 5886 5886 5886 5886 5886 5885 5886 5886 5885 5886 5888 5890 5893 5895 5896 5898 5899 5902 5902 5902 5904 5906 5906 5907 5908 5909 5910 5912 5913 5914 5915 5916
5866 5864 5862 5861 5859 5858 5856 5855 5853 5852 5851 5849 5848 5846 5845 5843 5842 5840 5839 5838 5837 5836 5835 5834 5834 5834 5835 5835 5835 5835 5835 5835 5837 5839 5840 5840 5840 5842 5845 5847 5850 5853 5857 5860 5862 5864 5867 5870 5871 5872 5874 5876 5879 5881 5882 5883 5885 5885 5885 5885 5885 5885 5885 5886 5884 5884 5886 5889 5891 5894 5895 5897 5898 5900 5902 5902 5902 5904 5905 5906 5907 5908 5910 5911 5913 5914 5915 5916
5864 5862 5860 5859 5857 5856 5854 5853 5851 5850 5848 5847 5845 5843 5842 5840 5839 5838 5836 5835 5834 5833 5832 5832 5832 5831 5832 5832 5831 5832 5833 5834 5835 5836 5837 5838 5838 5840 5842 5844 5847 5851 5855 5857 5859 5862 5865 5867 5869 5870 5873 5876 5879 5879 5880 5882 5884 5884 5884 5884 5885 5885 5885 5885 5885 5884 5886 5889 5891 5893 5895 5896 5897 5898 5901 5902 5902 5902 5903 5904 5906 5908 5909 5911 5912 5914 5915 5915
5862 5860 5859 5857 5855 5854 5852 5851 5849 5847 5846 5844 5842 5841 5839 5838 5836 5835 5834 5832 5831 5830 5829 5829 5829 5829 5829 5828 5828 5829 5831 5831 5832 5833 5834 5835 5836 5838 5839 5841 5844 5848 5852 5854 5856 5859 5862 5865 5868 5870 5872 5875 5877 5878 5879 5881 5882 5883 5883 5884 5884 5885 5885 5885 5886 5886 5887 5889 5890 5892 5894 5895 5896 5897 5899 5900 5901 5902 5903 5903 5905 5907 5909 5910 5911 5913 5914 5915
5860 5858 5857 5855 5853 5852 5850 5848 5847 5845 5844 5842 5840 5838 5837 5835 5834 5832 5831 5829 5828 5828 5827 5827 5826 5826 5826 5826 5826 5827 5828 5829 5830 5831 5832 5833 5834 5836 5837 5839 5842 5846 5849 5850 5853 5856 5859 5863 5866 5869 5871 5873 5874 5876 5878 5880 5881 5882 5883 5883 5884 5884 5885 5885 5886 5887 5888 5890 5891 5892 5893 5895 5895 5896 5897 5898 5900 5902 5903 5903 5905 5907 5908 5910 5911 5913 5914 5915
5858 5856 5855 5853 5851 5850 5848 5846 5844 5843 5841 5839 5838 5836 5834 5833 5831 5830 5828 5827 5826 5825 5824 5824 5823 5823 5824 5824 5824 5825 5826 5827 5828 5829 5830 5831 5832 5833 5835 5837 5841 5843 5845 5847 5851 5855 5859 5862 5866 5868 5870 5870 5872 5875 5877 5879 5880 5881 5882 5882 5883 5883 5884 5885 5885 5886 5888 5888 5889 5890 5892 5893 5894 5895 5896 5898 5899 5901 5903 5904 5905 5906 5908 5910 5911 5912 5914 5915
5856 5855 5853 5851 5849 5847 5846 5844 5842 5841 5839 5837 5835 5834 5832 5831 5829 5828 5826 5824 5823 5822 5822 5821 5821 5821 5822 5822 5823 5823 5824 5825 5826 5827 5828 5829 5830 5831 5833 5835 5838 5839 5842 5845 5850 5855 5858 5861 5864 5867 5868 5869 5871 5874 5876 5877 5879 5880 5881 5881 5881 5882 5883 5884 5885 5886 5886 5886 5887 5888 5890 5892 5893 5894 5896 5897 5898 5900 5902 5903 5905 5906 5907 5909 5910 5912 5913 5914
5854 5853 5851 5849 5847 5845 5844 5842 5840 5838 5836 5835 5833 5832 5830 5829 5827 5826 5824 5823 5822 5820 5820 5819 5819 5819 5820 5820 5821 5821 5822 5823 5824 5825 5827 5828 5828 5830 5831 5833 5835 5837 5841 5844 5848 5853 5856 5858 5861 5864 5866 5867 5869 5872 5874 5876 5878 5878 5880 5880 5880 5881 5882 5883 5884 5885 5885 5885 5886 5887 5889 5891 5892 5893 5895 5896 5897 5898 5900 5902 5904 5905 5906 5908 5909 5911 5912 5913
5852 5851 5849 5847 5845 5843 5842 5840 5838 5836 5835 5833 5832 5830 5828 5827 5826 5824 5823 5822 5821 5820 5819 5818 5818 5818 5818 5819 5819 5819 5820 5822 5822 5824 5825 5826 5827 5828 5830 5832 5834 5836 5839 5842 5846 5850 5852 5855 5859 5861 5863 5864 5866 5871 5873 5874 5876 5877 5880 5880 5880 5881 5881 5882 5883 5883 5884 5885 5885 5887 5888 5890 5890 5892 5893 5894 5895 5897 5899 5901 5902 5904 5905 5907 5909 5911 5912 5913
5851 5849 5847 5845 5843 5841 5839 5838 5836 5835 5833 5831 5829 5828 5826 5826 5825 5824 5823 5822 5821 5820 5819 5818 5818 5817 5817 5817 5818 5818 5820 5821 5821 5822 5823 5824 5825 5826 5829 5831 5832 5834 5836 5839 5843 5847 5849 5854 5857 5859 5861 5863 5865 5869 5871 5872 5874 5876 5879 5880 5880 5880 5881 5882 5882 5882 5883 5885 5886 5886 5887 5888 5888 5889 5891 5893 5895 5896 5898 5899 5901 5903 5905 5906 5908 5910 5911 5913
5849 5847 5845 5843 5841 5839 5838 5836 5834 5832 5830 5828 5827 5826 5825 5825 5824 5824 5823 5821 5821 5820 5818 5817 5817 5817 5816 5816 5817 5817 5818 5819 5820 5820 5822 5823 5824 5825 5828 5829 5831 5832 5833 5836 5841 5845 5848 5852 5855 5857 5859 5860 5863 5867 5869 5870 5872 5875 5878 5878 5879 5880 5880 5881 5881 5882 5883 5884 5885 5885 5886 5887 5887 5888 5890 5892 5893 5894 5896 5898 5899 5901 5904 5906 5907 5909 5911 5912
5847 5845 5843 5841 5839 5838 5836 5834 5832 5830 5829 5828 5827 5826 5825 5824 5823 5822 5821 5821 5820 5819 5818 5817 5816 5816 5816 5816 5816 5816 5817 5818 5819 5819 5820 5821 5823 5824 5826 5828 5830 5831 5833 5836 5840 5843 5846 5850 5853 5855 5857 5858 5861 5865 5868 5869 5871 5874 5876 5877 5878 5879 5879 5880 5881 5882 5883 5883 5884 5884 5885 5886 5886 5887 5889 5890 5891 5892 5894 5896 5898 5900 5903 5905 5907 5908 5910 5911
5845 5843 5841 5839 5837 5836 5835 5833 5831 5829 5828 5827 5826 5825 5823 5822 5822 5821 5820 5820 5820 5819 5817 5817 5816 5816 5816 5816 5816 5816 5816 5817 5818 5818 5819 5820 5822 5824 5825 5828 5830 5831 5833 5836 5838 5840 5844 5848 5852 5854 5856 5858 5861 5864 5867 5868 5870 5872 5873 5874 5876 5877 5878 5880 5881 5881 5882 5883 5883 5884 5885 5885 5885 5886 5887 5888 5889 5890 5892 5895 5897 5899 5901 5903 5905 5907 5909 5910
5843 5841 5839 5837 5836 5834 5833 5831 5830 5828 5827 5826 5825 5823 5822 5821 5821 5821 5820 5820 5819 5818 5817 5817 5816 5816 5816 5816 5816 5816 5816 5817 5817 5817 5818 5819 5821 5823 5825 5827 5829 5832 5834 5835 5838 5840 5842 5846 5850 5852 5854 5856 5859 5863 5865 5866 5867 5869 5871 5873 5874 5876 5878 5880 5881 5881 5881 5882 5883 5884 5885 5885 5885 5886 5886 5887 5887 5888 5890 5892 5894 5897 5899 5902 5904 5906 5908 5909
5842 5840 5838 5836 5834 5833 5831 5830 5828 5827 5826 5825 5824 5822 5821 5821 5821 5821 5820 5819 5818 5818 5818 5818 5817 5817 5817 5817 5817 5817 5816 5817 5817 5818 5818 5819 5820 5822 5824 5827 5829 5832 5834 5836 5838 5840 5841 5844 5847 5850 5852 5855 5858 5861 5862 5863 5865 5868 5871 5873 5874 5875 5877 5879 5880 5880 5881 5881 5882 5883 5885 5885 5885 5885 5886 5886 5886 5885 5887 5890 5894 5897 5899 5901 5903 5905 5907 5908
5840 5838 5836 5834 5833 5831 5830 5829 5827 5826 5825 5824 5823 5822 5821 5821 5821 5820 5819 5818 5818 5818 5818 5819 5818 5818 5818 5817 5818 5817 5816 5817 5818 5818 5819 5819 5821 5823 5825 5827 5829 5832 5834 5836 5838 5839 5840 5841 5844 5848 5851 5854 5857 5860 5861 5861 5863 5867 5869 5871 5873 5874 5875 5877 5878 5879 5880 5881 5882 5883 5884 5885 5885 5885 5885 5885 5885 5884 5885 5889 5893 5896 5898 5900 5902 5904 5906 5907
5838 5836 5834 5833 5831 5830 5828 5828 5826 5824 5824 5823 5822 5822 5821 5821 5821 5820 5819 5818 5819 5819 5819 5819 5818 5818 5818 5817 5817 5817 5817 5818 5819 5819 5820 5819 5821 5824 5826 5828 5830 5832 5834 5836 5837 5838 5839 5840 5843 5846 5850 5853 5856 5859 5859 5859 5861 5865 5867 5869 5871 5873 5875 5876 5877 5878 5879 5880 5881 5882 5883 5884 5884 5885 5885 5885 5885 5884 5884 5888 5892 5894 5896 5899 5901 5903 5905 5907
5837 5835 5833 5831 5830 5828 5827 5826 5825 5823 5823 5822 5822 5821 5821 5821 5820 5820 5819 5818 5819 5819 5819 5820 5819 5819 5819 5818 5818 5817 5818 5819 5819 5820 5820 5820 5822 5825 5826 5829 5830 5832 5833 5835 5836 5837 5839 5840 5842 5845 5848 5852 5855 5858 5860 5859 5859 5863 5865 5868 5870 5872 5874 5875 5876 5877 5878 5879 5881 5882 5882 5883 5884 5885 5886 5886 5886 5885 5886 5888 5891 5893 5895 5897 5898 5900 5903 5905
5835 5833 5831 5829 5828 5827 5825 5825 5824 5822 5822 5821 5821 5821 5821 5821 5820 5820 5819 5818 5819 5819 5819 5820 5820 5819 5819 5819 5819 5818 5819 5820 5820 5820 5821 5821 5823 5825 5826 5828 5829 5830 5831 5832 5833 5836 5838 5841 5843 5845 5849 5852 5854 5857 5859 5858 5859 5861 5863 5866 5869 5871 5873 5875 5875 5876 5878 5879 5880 5881 5882 5883 5884 5885 5885 5886 5887 5887 5887 5889 5891 5893 5895 5896 5898 5899 5902 5904
5833 5831 5829 5828 5826 5825 5824 5823 5823 5821 5821 5820 5820 5820 5820 5820 5820 5819 5818 5818 5819 5819 5818 5819 5819 5819 5819 5819 5819 5820 5820 5820 5820 5820 5821 5821 5822 5823 5825 5826 5826 5827 5828 5829 5832 5835 5837 5839 5841 5845 5848 5851 5853 5856 5857 5858 5859 5859 5861 5865 5868 5870 5872 5874 5874 5875 5877 5878 5879 5881 5881 5882 5883 5885 5885 5885 5886 5887 5888 5889 5891 5893 5894 5896 5898 5900 5902 5904
5832 5830 5828 5826 5825 5824 5823 5822 5822 5821 5820 5820 5819 5819 5819 5819 5819 5818 5817 5818 5818 5818 5818 5818 5819 5819 5819 5819 5820 5821 5821 5821 5821 5820 5821 5821 5821 5821 5823 5823 5824 5825 5827 5829 5830 5832 5835 5838 5840 5843 5846 5849 5851 5853 5856 5857 5858 5860 5862 5865 5867 5868 5870 5871 5872 5874 5876 5877 5879 5880 5881 5881 5883 5884 5885 5885 5886 5887 5888 5889 5891 5892 5893 5894 5896 5899 5902 5903
5830 5828 5826 5824 5823 5822 5821 5821 5820 5819 5819 5819 5818 5818 5818 5818 5818 5817 5817 5818 5818 5818 5817 5818 5818 5819 5819 5819 5820 5821 5821 5821 5821 5820 5820 5821 5820 5820 5822 5823 5824 5825 5826 5826 5827 5830 5834 5837 5839 5841 5844 5848 5850 5851 5853 5855 5857 5860 5862 5863 5865 5867 5869 5869 5870 5873 5875 5877 5878 5879 5880 5881 5882 5883 5884 5885 5886 5887 5888 5889 5890 5891 5891 5891 5894 5898 5900 5903
5829 5826 5824 5822 5821 5820 5820 5819 5819 5818 5818 5818 5817 5817 5817 5817 5817 5816 5816 5817 5818 5817 5817 5817 5818 5819 5819 5819 5820 5820 5820 5821 5821 5820 5820 5820 5819 5819 5820 5821 5822 5823 5823 5824 5825 5829 5832 5834 5836 5838 5841 5845 5847 5849 5851 5853 5855 5858 5860 5861 5863 5866 5867 5868 5870 5872 5874 5876 5877 5878 5879 5880 5881 5882 5883 5884 5885 5887 5888 5889 5890 5890 5890 5891 5893 5897 5899 5901
5827 5825 5822 5821 5819 5819 5818 5818 5817 5817 5816 5816 5816 5816 5816 5815 5815 5815 5816 5817 5817 5816 5816 5817 5817 5817 5818 5818 5818 5818 5819 5820 5820 5819 5819 5819 5818 5818 5819 5819 5820 5821 5822 5824 5825 5827 5830 5832 5834 5836 5839 5843 5846 5847 5849 5852 5855 5857 5858 5859 5862 5864 5866 5867 5868 5870 5872 5874 5875 5876 5878 5879 5881 5882 5883 5883 5884 5886 5887 5889 5889 5890 5891 5891 5893 5895 5897 5900
5825 5823 5821 5819 5818 5817 5816 5816 5816 5815 5815 5815 5814 5814 5815 5814 5814 5814 5814 5814 5815 5815 5815 5816 5816 5816 5817 5818 5817 5817 5818 5819 5819 5818 5818 5817 5817 5818 5818 5819 5820 5821 5823 5825 5825 5825 5828 5831 5832 5834 5837 5840 5843 5846 5847 5850 5853 5855 5857 5859 5861 5863 5864 5866 5867 5869 5871 5872 5873 5875 5877 5878 5880 5881 5882 5883 5883 5885 5886 5888 5889 5890 5891 5891 5893 5895 5896 5897
5822 5821 5819 5817 5816 5815 5815 5814 5814 5813 5813 5814 5813 5813 5813 5813 5813 5813 5813 5812 5813 5813 5814 5814 5814 5815 5815 5816 5816 5816 5817 5817 5817 5817 5817 5817 5817 5817 5817 5818 5820 5821 5823 5825 5825 5826 5828 5831 5832 5833 5835 5838 5841 5844 5845 5847 5850 5853 5856 5857 5859 5860 5862 5864 5866 5868 5869 5870 5871 5873 5875 5877 5878 5879 5880 5881 5882 5883 5884 5886 5887 5889 5890 5891 5892 5892 5891 5891
5820 5819 5818 5816 5814 5814 5813 5812 5812 5812 5812 5813 5812 5812 5812 5811 5811 5812 5812 5812 5811 5812 5812 5812 5814 5814 5814 5815 5815 5816 5816 5815 5815 5816 5816 5816 5818 5818 5817 5818 5820 5822 5823 5823 5824 5826 5828 5830 5832 5833 5835 5838 5840 5842 5844 5846 5847 5849 5851 5852 5853 5856 5860 5862 5864 5866 5868 5868 5869 5871 5873 5875 5876 5877 5878 5880 5881 5882 5882 5883 5884 5886 5888 5889 5889 5889 5889 5890
5817 5816 5816 5815 5813 5812 5811 5810 5810 5811 5811 5811 5810 5810 5810 5810 5810 5811 5812 5812 5811 5810 5811 5812 5813 5812 5812 5813 5814 5815 5815 5814 5814 5815 5815 5816 5818 5818 5817 5818 5820 5821 5822 5822 5823 5825 5827 5829 5831 5833 5834 5837 5840 5841 5843 5843 5842 5843 5844 5846 5849 5853 5857 5860 5862 5864 5866 5866 5867 5869 5871 5872 5874 5875 5876 5878 5879 5880 5881 5881 5882 5883 5884 5885 5887 5889 5890 5891
5815 5813 5814 5813 5812 5810 5809 5809 5808 5808 5808 5808 5808 5808 5808 5808 5808 5809 5810 5810 5810 5809 5810 5810 5810 5810 5811 5812 5813 5813 5814 5813 5813 5813 5814 5815 5816 5817 5816 5817 5819 5819 5820 5821 5823 5825 5826 5827 5830 5832 5833 5836 5838 5839 5840 5838 5837 5839 5841 5845 5849 5852 5855 5857 5859 5861 5863 5864 5866 5868 5869 5869 5871 5872 5874 5875 5876 5877 5879 5880 5881 5881 5882 5882 5884 5886 5887 5888
5813 5811 5811 5811 5809 5808 5807 5807 5806 5805 5806 5806 5806 5807 5807 5806 5806 5807 5807 5807 5807 5808 5808 5808 5809 5809 5810 5811 5811 5812 5812 5811 5811 5812 5813 5813 5814 5815 5815 5816 5818 5818 5819 5820 5823 5824 5824 5825 5828 5830 5832 5835 5836 5837 5836 5833 5834 5837 5840 5844 5848 5850 5853 5855 5857 5859 5861 5863 5865 5866 5866 5867 5868 5870 5872 5873 5874 5876 5877 5878 5879 5880 5880 5881 5882 5883 5884 5884
5811 5809 5809 5808 5807 5806 5805 5805 5803 5802 5803 5804 5804 5805 5805 5804 5805 5805 5805 5804 5805 5805 5806 5807 5807 5808 5808 5808 5809 5809 5810 5810 5810 5811 5811 5811 5813 5815 5815 5815 5817 5817 5818 5820 5822 5823 5823 5825 5827 5829 5832 5834 5835 5834 5831 5829 5832 5836 5839 5843 5846 5848 5851 5853 5855 5856 5858 5861 5863 5864 5865 5865 5866 5867 5869 5871 5873 5875 5876 5877 5878 5879 5880 5880 5880 5881 5882 5882
5809 5807 5807 5805 5804 5804 5803 5803 5802 5800 5801 5802 5801 5802 5803 5803 5804 5804 5803 5802 5803 5803 5804 5804 5805 5805 5805 5806 5806 5807 5808 5809 5809 5810 5810 5810 5812 5814 5815 5815 5815 5815 5817 5819 5820 5822 5823 5824 5826 5828 5830 5831 5829 5827 5826 5827 5832 5836 5839 5842 5844 5846 5849 5851 5852 5853 5856 5858 5861 5862 5863 5864 5864 5865 5867 5870 5872 5873 5874 5875 5876 5877 5878 5879 5879 5880 5880 5880
5807 5806 5804 5803 5802 5801 5800 5800 5799 5798 5798 5799 5800 5800 5801 5802 5802 5801 5800 5801 5801 5802 5802 5802 5802 5802 5803 5804 5805 5806 5807 5807 5808 5810 5810 5810 5810 5812 5813 5814 5814 5814 5815 5817 5819 5820 5821 5823 5824 5826 5827 5827 5823 5822 5823 5826 5831 5835 5837 5840 5842 5844 5847 5849 5850 5851 5853 5856 5857 5859 5860 5861 5863 5864 5865 5867 5870 5871 5872 5873 5874 5874 5875 5876 5877 5878 5879 5879
5805 5803 5802 5801 5800 5799 5798 5797 5797 5796 5795 5797 5798 5798 5799 5800 5799 5799 5799 5799 5799 5800 5800 5801 5800 5800 5801 5802 5804 5804 5805 5806 5807 5808 5809 5809 5808 5810 5811 5811 5811 5812 5813 5815 5816 5818 5819 5820 5822 5824 5826 5824 5821 5819 5821 5824 5827 5831 5835 5837 5839 5841 5844 5846 5848 5850 5851 5853 5854 5856 5857 5859 5861 5862 5864 5865 5867 5869 5870 5871 5871 5872 5873 5873 5874 5875 5876 5877
5802 5801 5800 5799 5797 5796 5795 5795 5795 5794 5794 5795 5796 5796 5797 5798 5797 5797 5797 5797 5798 5799 5799 5799 5799 5798 5800 5801 5802 5802 5803 5804 5805 5806 5807 5807 5808 5808 5809 5809 5809 5810 5811 5813 5814 5816 5817 5819 5821 5823 5824 5823 5820 5818 5819 5821 5824 5828 5832 5834 5836 5839 5841 5843 5846 5848 5849 5850 5851 5853 5854 5856 5858 5860 5862 5863 5865 5866 5867 5868 5869 5870 5871 5872 5872 5873 5874 5876
5799 5798 5797 5796 5794 5793 5792 5792 5792 5793 5792 5792 5793 5794 5795 5794 5794 5795 5796 5796 5796 5797 5798 5798 5797 5797 5799 5800 5800 5801 5802 5803 5803 5804 5805 5806 5807 5807 5807 5808 5808 5808 5809 5810 5812 5813 5815 5816 5818 5821 5822 5821 5818 5817 5819 5822 5824 5826 5829 5832 5834 5836 5838 5840 5843 5845 5846 5847 5849 5850 5851 5853 5855 5857 5859 5860 5862 5863 5864 5865 5867 5868 5869 5870 5871 5871 5872 5874